Flag for U.S.A. Weather past 2 weeks in Winamac, Indiana, U.S.A.

Now
75 °F

Mostly cloudy.


Feels Like: 74 °F
Forecast: 56 / 75 °F
Wind: 9 mph from Southeast

Location: Porter County Municipal Airport

Current Time: Jul 6, 2015 at 8:31:06 PM

Latest Report: Jul 6, 2015 at 7:56 PM


Visibility: 10 mi

Pressure: 29.89 "Hg

Humidity: 90%

Dew point: 72 °F

Location of WinamacLocation

Historic Weather in Winamac — Graph

°F

Winamac temperature yesterday

Maximum temperature yesterday: 82 °F (at 3:56 PM)
Minimum temperature yesterday: 58 °F (at 6:56 AM)
Average temperature yesterday: 72 °F

Past Weeks' High & Low Weather Summary

 TemperatureHumidityPressure
High85 °F (Jul 6, 3:56 PM)100% (Jun 30, 3:56 AM)30.17 "Hg (Jun 30, 3:56 AM)
Low53 °F (Jun 28, 6:56 AM)40% (Jun 23, 4:56 PM)29.72 "Hg (Jun 22, 11:56 PM)
Average68 °F76%29.95 "Hg
* Reported Jun 21 6:56 PM — Jul 6 6:56 PM, Winamac, Weather by CustomWeather, © 2015

Note: Actual official high and low records may vary slightly from our data, if they occured in-between our weather recording intervals... More about our weather records

Advertising

Winamac weather history for previous 24 hours

 ConditionsComfort  
Time TempWeatherWind HumidityBarometerVisibility
6:56 PM
Mon, Jul 6
82 °FBroken clouds.5 mph67%29.90 "Hg9 mi
5:56 PM83 °FSunny.9 mph63%29.90 "Hg9 mi
4:56 PM84 °FScattered clouds.12 mph61%29.93 "Hg9 mi
3:56 PM85 °FPassing clouds.13 mph59%29.94 "Hg10 mi
2:56 PM84 °FPassing clouds.15 mph59%29.94 "Hg9 mi
1:56 PM83 °FPassing clouds.15 mph61%29.96 "Hg9 mi
12:56 PM81 °FSunny.10 mph62%30.00 "Hg8 mi
11:56 AM81 °FPassing clouds.13 mph62%30.01 "Hg8 mi
10:56 AM78 °FSunny.13 mph69%30.01 "Hg7 mi
9:56 AM74 °FSunny.8 mph82%30.02 "Hg6 mi
8:56 AM70 °FFog.8 mph87%30.04 "Hg4 mi
7:56 AM66 °FFog.6 mph93%30.04 "Hg3 mi
6:56 AM65 °FFog.6 mph97%30.00 "Hg2 mi
5:56 AM62 °FFog.No wind96%30.03 "Hg2 mi
4:56 AM63 °FFog.No wind90%30.03 "Hg5 mi
3:56 AM66 °FClear.5 mph87%30.03 "Hg8 mi
2:56 AM67 °FClear.3 mph81%30.02 "Hg10 mi
1:56 AM69 °FClear.7 mph76%30.01 "Hg10 mi
12:56 AM69 °FClear.5 mph76%30.02 "Hg10 mi
11:56 PM
Sun, Jul 5
71 °FClear.6 mph71%30.03 "Hg10 mi
10:56 PM73 °FClear.5 mph66%30.04 "Hg10 mi
9:56 PM74 °FClear.5 mph64%30.03 "Hg10 mi
8:56 PM77 °FSunny.3 mph60%30.03 "Hg10 mi
Weather by CustomWeather, © 2015

See weather overviewHow to use our weather pages